Weather History for KHPN - March, 2013

Change the Weather History Date:

Sunday, March 10, 2013

  Actual Average Record
Temperature  
Mean Temperature 37 °F -  
Max Temperature 46 °F 41 °F 72 °F (2006)
Min Temperature 28 °F 26 °F 8 °F (1984)
Degree Days  
Heating Degree Days 28    
Moisture  
Dew Point 29 °F    
Average Humidity 76    
Maximum Humidity 89    
Minimum Humidity 56    
Precipitation  
Precipitation 0.00 in - - ()
Sea Level Pressure  
Sea Level Pressure 30.34 in    
Wind  
Wind Speed 3 mph (SE)    
Max Wind Speed 9 mph    
Max Gust Speed -    
Visibility 10 miles    
Events      
Averages and records for this station are not official NWS values.
T = Trace of Precipitation, MM = Missing Value Source: NWS Daily Summary

Daily Weather History Graph

Daily Weather History Graph

Search for Another Location

Airport or City:

Trip Planner

Search our weather history database for the weather conditions in past years. The results will help you decide how hot, cold, wet, or windy it might be!

Date:

Astronomy

Mar. 10, 2013 Rise Set
Actual Time 7:14 AM EDT 6:56 PM EDT
Civil Twilight 6:46 AM EDT 7:23 PM EDT
Nautical Twilight 6:15 AM EDT 7:55 PM EDT
Astronomical Twilight 5:43 AM EDT 8:27 PM EDT
Moon 6:13 AM EDT (3/10) 6:01 PM EDT (3/10)
Length of Visible Light 12h 36m
Length of Day
11h 41m
Waning Crescent, 2% of the Moon is Illuminated
Mar 10
Waning Crescent
Mar 11
New
Mar 19
First Quarter
Mar 27
Full
Apr 3
Last Quarter

Hourly Weather History & Observations

Time (EDT) Temp. Windchill Dew Point Humidity Pressure Visibility Wind Dir Wind Speed Gust Speed Precip Events Conditions
12:56 AM 32.0 °F - 26.1 °F 79% 30.35 in 10.0 mi Calm Calm - N/A   Clear
1:56 AM 30.9 °F - 26.1 °F 82% 30.34 in 10.0 mi Calm Calm - N/A   Clear
3:56 AM 28.9 °F 25.2 °F 24.1 °F 82% 30.33 in 10.0 mi NW 3.5 mph - N/A   Clear
4:56 AM 28.0 °F 22.8 °F 24.1 °F 85% 30.35 in 10.0 mi WNW 4.6 mph - N/A   Clear
5:56 AM 28.9 °F - 25.0 °F 85% 30.35 in 9.0 mi Calm Calm - N/A   Clear
6:56 AM 28.0 °F - 25.0 °F 88% 30.37 in 9.0 mi Calm Calm - N/A   Clear
8:56 AM 35.1 °F 31.0 °F 28.0 °F 76% 30.38 in 10.0 mi East 4.6 mph - N/A   Clear
9:56 AM 37.9 °F 32.1 °F 30.0 °F 73% 30.39 in 10.0 mi ESE 8.1 mph - N/A   Clear
10:56 AM 39.9 °F 35.8 °F 30.0 °F 68% 30.39 in 10.0 mi ESE 5.8 mph - N/A   Clear
11:56 AM 41.0 °F 35.2 °F 30.9 °F 67% 30.38 in 10.0 mi ESE 9.2 mph - N/A   Clear
12:56 PM 41.0 °F 36.4 °F 30.9 °F 67% 30.36 in 10.0 mi SSE 6.9 mph - N/A   Clear
1:56 PM 44.1 °F 41.5 °F 30.0 °F 58% 30.35 in 10.0 mi SE 4.6 mph - N/A   Clear
2:56 PM 46.0 °F 43.1 °F 30.9 °F 56% 30.33 in 10.0 mi ESE 5.8 mph - N/A   Clear
3:56 PM 44.1 °F 40.8 °F 33.1 °F 65% 30.33 in 10.0 mi SSE 5.8 mph - N/A   Scattered Clouds
4:56 PM 43.0 °F 38.2 °F 33.1 °F 68% 30.32 in 10.0 mi South 8.1 mph - N/A   Clear
5:56 PM 39.9 °F 33.9 °F 30.9 °F 70% 30.31 in 10.0 mi SSE 9.2 mph - N/A   Clear
6:56 PM 37.9 °F 33.5 °F 30.0 °F 73% 30.33 in 10.0 mi SE 5.8 mph - N/A   Clear
7:56 PM 36.0 °F 30.3 °F 30.0 °F 79% 30.33 in 10.0 mi SE 6.9 mph - N/A   Clear
8:56 PM 36.0 °F 31.1 °F 30.9 °F 82% 30.34 in 10.0 mi SSE 5.8 mph - N/A   Clear
9:56 PM 36.0 °F 29.6 °F 30.9 °F 82% 30.33 in 10.0 mi SSE 8.1 mph - N/A   Clear
10:56 PM 35.1 °F 31.0 °F 32.0 °F 89% 30.33 in 10.0 mi SSE 4.6 mph - N/A   Partly Cloudy
11:56 PM 36.0 °F - 32.0 °F 86% 30.32 in 10.0 mi Calm Calm - N/A   Scattered Clouds
12:56 AM 36.0 °F - 32.0 °F 86% 30.32 in 10.0 mi Calm Calm - N/A   Partly Cloudy